sat.trackr.live / text

‹ back to catalog

SCS-01 G

NORAD 63988 · 2025-100G

PAYLOAD ACTIVE UNKNOWN

§ Identity

Operator
Country
PRC
Launch date
2025-05-14
Launch site
JSC
Launch vehicle
Mass (kg)
RCS (m²)

External: N2YO · Heavens-Above · Gunter

§ Orbital elements

Epoch: 2026-09-21T23:17:26.143872Z

Period
94.28 min
Inclination
97.3626°
Eccentricity
0.0011466
Mean motion
15.27441117 rev/d
Perigee alt
475.6 km
Apogee alt
491.3 km
Semi-major
6,861.6 km
B*
1.1113e-4
RAAN
338.7301°
Arg perigee
329.2428°
Mean anomaly
30.8139°
Rev number
7,553

§ Raw data

SCS-01 G1 63988U 25100G   26264.97044148  .00002915  00000+0  11113-3 0  99952 63988  97.3626 338.7301 0011466 329.2428  30.8139 15.27441117 75539

JSON: /api/v1/satellites/63988 · /tle

For live sub-satellite position, see the globe view (requires WebGL).

§ Visibility from observer

Set your observer location to see the next 7 days of passes ≥ 10°. The values pass through the URL so the page stays shareable.

No JS? Fill the form by hand. The geolocation button needs JavaScript.